[[{"header":{"parameterUnit":"m.s-1","parameterCategory":1,"la1":30.2991,"la2":30.254,"lo1":-89.0895,"lo2":-89.0444,"dy":0.0017,"dx":0.0017,"nx":28,"ny":28,"refTime":"2024-06-23T03:00:00:Z","depth":0,"parameterNumber":2,"parameterNumberName":"U-component_of_WINDS"},"data":[0,0,0,0,0,0,0,0,0,0,0,0,0,0,0,0,0,0,0,0,0,0,0,0,0,0,0,0,0,0,0,0,0,0,0,0,0,0,0,0,0,0,0,0,0,0,0,0,0,0,0,0,0,0,0,0,0,0,1.7234,1.7235,0,1.7326,1.7327,1.7328,1.7327,1.7326,1.7324,1.7323,1.7424,1.7428,1.7432,0,0,0,0,0,0,0,0,0,0,0,0,0,1.7062,1.7065,1.7234,1.7235,1.7236,1.7326,1.7327,1.7329,1.7327,1.7325,1.7324,1.7322,1.7423,1.7427,1.7432,0,0,0,0,0,0,0,0,0,0,0,0,0,1.7144,1.7066,1.7234,1.7246,1.7248,1.7326,1.7328,1.7329,1.7327,1.7325,1.7324,1.7322,1.7421,1.7427,1.7433,1.7506,0,0,1.745,1.7453,0,0,0,0,0,0,0,0,1.7139,1.715,1.7243,1.7245,1.7248,1.7313,1.7304,1.7389,1.7328,1.7298,1.7323,1.7321,1.7389,1.7397,1.7419,1.7511,1.7515,1.7451,1.7454,1.7457,1.7458,0,0,0,0,0,0,0,1.7134,1.7146,1.7271,1.7245,1.7247,1.7249,1.7259,1.732,1.7353,1.73,1.73,1.7311,1.739,1.7413,1.7421,1.7517,1.7451,1.7456,1.7459,1.7462,1.7673,1.7675,0,0,0,0,0,0,1.7125,1.7142,1.7268,1.7274,1.7188,1.7254,1.7264,1.7294,1.7352,1.7359,1.7312,1.731,1.7404,1.7415,1.7425,1.7514,1.7457,1.7462,1.7465,1.7671,1.7673,1.7676,0,0,0,0,0,0,1.7121,1.7136,1.7264,1.7208,1.7224,1.7259,1.7292,1.7297,1.732,1.7361,1.7368,1.733,1.7403,1.7417,1.7485,1.7517,1.7465,1.747,1.7668,1.7672,1.7675,1.7693,0,0,0,0,0,0,1.7116,1.7135,1.7161,1.7208,1.7227,1.7321,1.7294,1.73,1.7329,1.7328,1.7379,1.7386,1.7403,1.7477,1.7491,1.7524,1.7475,1.7666,1.767,1.7674,1.7689,1.7696,1.7702,0,0,0,0,0,1.711,1.7165,1.7163,1.7178,1.7261,1.7323,1.7334,1.735,1.7332,1.736,1.7387,1.7385,1.7512,1.7484,1.75,1.7535,1.7664,1.7669,1.7673,1.7686,1.7695,1.7702,0,0,0,0,0,0,1.7123,1.7171,1.717,1.724,1.7277,1.7322,1.7358,1.7359,1.7403,1.74,1.742,1.7432,1.75,1.7525,1.7493,1.7609,1.7586,1.7594,1.759,1.7598,1.7604,1.7596,1.7479,0,0,0,0,0,1.7134,1.7178,1.7218,1.7277,1.7296,1.7324,1.7352,1.736,1.7401,1.7417,1.7448,1.7489,1.7538,1.757,1.7617,1.7693,1.7705,1.7726,1.7732,1.7737,1.7744,1.7785,1.7795,1.7692,1.7692,1.7691,0,0,1.7157,1.7189,1.7216,1.7281,1.731,1.7357,1.7337,1.7388,1.7423,1.7425,1.749,1.7515,1.7562,1.7634,1.7668,1.7657,1.7775,1.7743,1.7747,1.7751,1.7791,1.7801,1.7809,1.7695,1.7694,1.7694,0,0,1.7223,1.7252,1.7303,1.7333,1.7377,1.7395,1.7408,1.7453,1.7468,1.7534,1.7536,1.758,1.7664,1.7697,1.7725,1.7803,1.7803,1.7818,1.785,1.789,1.7898,1.7906,1.7933,1.7942,1.7825,1.7825,1.7825,0,1.7247,1.7316,1.733,1.738,1.7409,1.7411,1.7463,1.7492,1.7551,1.7571,1.7558,1.7663,1.7695,1.7774,1.7793,1.7816,1.7831,1.7812,1.7896,1.7903,1.791,1.7936,1.7946,1.7826,1.7826,1.7826,1.7826,0,1.7342,1.739,1.7427,1.748,1.7513,1.7565,1.7588,1.762,1.7627,1.7647,1.7714,1.7752,1.7807,1.7827,1.7835,1.7908,1.7899,1.7891,1.7867,1.7921,1.7946,1.7956,1.7828,1.7828,1.7828,1.7827,0,0,1.7419,1.7478,1.7492,1.7515,1.7564,1.7602,1.7655,1.7706,1.7732,1.7773,1.7818,1.7889,1.788,1.7912,1.7924,1.7959,1.8017,1.7947,1.7948,1.7957,1.8099,1.8104,1.8115,1.8018,1.802,1.8022,1.8094,0,1.7489,1.7578,1.7592,1.7672,1.7716,1.7719,1.7764,1.78,1.782,1.7863,1.7886,1.7935,1.7922,1.7941,1.7976,1.8003,1.8046,1.7998,1.806,1.8062,1.8046,1.8128,1.8133,1.82,1.8104,1.8106,1.8107,0,1.7582,1.7622,1.7705,1.7746,1.7766,1.7806,1.7853,1.7893,1.7935,1.7947,1.7982,1.7989,1.8045,1.802,1.8097,1.8064,1.8091,1.8108,1.8111,1.8116,1.8087,1.8134,1.8222,1.8231,1.8123,1.8122,1.812,0,1.7628,1.7703,1.7761,1.7782,1.7833,1.7861,1.7884,1.7923,1.7952,1.7995,1.8015,1.8064,1.8091,1.813,1.8152,1.8132,1.8227,1.8204,1.824,1.8239,1.8259,1.8257,1.835,1.8278,1.8278,1.8278,1.8278,0,1.7703,1.7754,1.7782,1.7818,1.7875,1.7892,1.7949,1.7971,1.8006,1.8048,1.8055,1.8094,1.812,1.8164,1.8182,1.8242,1.8255,1.8268,1.8271,1.8266,1.8264,1.8283,1.8278,1.8281,1.828,1.8279,1.8279,0,1.7763,1.7784,1.7848,1.789,1.7902,1.7942,1.7979,1.8015,1.8035,1.8088,1.8102,1.8134,1.8186,1.8211,1.8277,1.8288,1.8357,1.8358,1.8342,1.8343,1.8376,1.8372,1.8484,1.8499,1.8418,1.8419,1.842,0,1.7809,1.7847,1.7893,1.792,1.7943,1.7987,1.8016,1.8035,1.8066,1.8115,1.8146,1.8197,1.8239,1.8322,1.8353,1.8403,1.8405,1.8441,1.8412,1.8405,1.8404,1.84,1.8404,1.8445,1.8446,1.8447,1.8447,0,1.7889,1.7897,1.7937,1.7982,1.8016,1.8053,1.8089,1.8112,1.8137,1.8172,1.8223,1.8255,1.832,1.8372,1.8423,1.8449,1.8453,1.8456,1.8466,1.8461,1.8449,1.8454,1.8354,1.8453,1.8452,1.8452,1.8452,1.8451,1.7942,1.7976,1.8012,1.8057,1.8086,1.812,1.8155,1.8179,1.8221,1.8273,1.8283,1.8338,1.8379,1.8448,1.8476,1.852,1.8512,1.8528,1.8532,1.8535,1.8535,1.8443,1.853,1.853,1.8529,1.8529,1.8529,0,1.802,1.8044,1.8085,1.8134,1.817,1.8168,1.8208,1.8238,1.8285,1.8322,1.8362,1.8422,1.8471,1.8505,1.8556,1.8585,1.8588,1.8597,1.8595,1.8601,1.854,1.8525,1.8594,1.8594,1.8594,1.8594,1.8594,1.8594,1.8065,1.8121,1.8134,1.8205,1.8229,1.828,1.8303,1.8334,1.8363,1.8427,1.8468,1.8489,1.8525,1.8578,1.8624,1.8633,1.8651,1.866,1.8669,1.8612,1.8605,1.8598,1.8584,1.8664,1.8664,1.8725,1.8726,1.8726]},{"header":{"parameterUnit":"m.s-1","parameterCategory":1,"la1":30.2991,"la2":30.254,"lo1":-89.0895,"lo2":-89.0444,"dy":0.0017,"dx":0.0017,"nx":28,"ny":28,"refTime":"2024-06-23T03:00:00:Z","depth":0,"parameterNumber":3,"parameterNumberName":"V-component_of_WINDS"},"data":[0,0,0,0,0,0,0,0,0,0,0,0,0,0,0,0,0,0,0,0,0,0,0,0,0,0,0,0,0,0,0,0,0,0,0,0,0,0,0,0,0,0,0,0,0,0,0,0,0,0,0,0,0,0,0,0,0,0,2.0011,2.0012,0,2.0117,2.0118,2.0119,2.0067,2.0065,2.0062,2.0059,2.0174,2.018,2.0185,0,0,0,0,0,0,0,0,0,0,0,0,0,1.9769,1.9773,2.0011,2.0012,2.0013,2.0116,2.0118,2.0119,2.0068,2.0064,2.0061,2.0058,2.0172,2.0179,2.0186,0,0,0,0,0,0,0,0,0,0,0,0,0,1.9874,1.9775,2.0011,2.0,2.0,2.0116,2.0118,2.012,2.0068,2.0064,2.006,2.0056,2.017,2.0178,2.0187,2.0321,0,0,2.0212,2.0216,0,0,0,0,0,0,0,0,1.9868,1.9883,2.0,2.0001,2.0001,2.0074,2.0075,2.0188,2.007,2.0043,2.0059,2.0054,2.0145,2.0155,2.0184,2.0327,2.0332,2.0213,2.0218,2.0222,2.0224,0,0,0,0,0,0,0,1.9861,1.9878,2.0053,2.0002,2.0003,1.9991,2.0002,2.0096,2.0116,2.0045,2.0041,2.0054,2.0144,2.0176,2.0186,2.0333,2.0213,2.022,2.0226,2.0229,2.0591,2.0595,0,0,0,0,0,0,1.9853,1.9873,2.0049,2.0056,1.9923,1.9999,2.0011,2.0055,2.0115,2.012,2.0057,2.0051,2.0164,2.0177,2.019,2.0352,2.0222,2.023,2.0235,2.0586,2.0592,2.0596,0,0,0,0,0,0,1.9848,1.987,2.0045,1.9963,1.9985,2.0008,2.0058,2.0059,2.0091,2.0124,2.0128,2.0086,2.0161,2.0178,2.0288,2.0355,2.0234,2.0241,2.0581,2.0588,2.0594,2.0676,0,0,0,0,0,0,1.9842,1.9868,1.9919,1.9965,1.9989,2.0141,2.0062,2.0065,2.0105,2.0098,2.0152,2.0157,2.0159,2.0276,2.0297,2.0364,2.0248,2.0575,2.0584,2.0592,2.0667,2.0685,2.0699,0,0,0,0,0,1.9833,1.9939,1.9922,1.9943,2.0053,2.0145,2.0159,2.0157,2.0111,2.0162,2.0183,2.0155,2.0344,2.0288,2.0311,2.0382,2.0571,2.0581,2.0591,2.066,2.0681,2.0699,0,0,0,0,0,0,1.9904,1.9945,1.9926,2.005,2.0094,2.0136,2.0201,2.018,2.0239,2.0231,2.0227,2.024,2.0354,2.0379,2.0316,2.0515,2.045,2.0466,2.0495,2.0515,2.0531,2.0524,2.0255,0,0,0,0,0,1.9933,2.0002,2.0036,2.0142,2.0164,2.0179,2.0219,2.0213,2.0259,2.0278,2.0307,2.0355,2.0424,2.0471,2.0537,2.0669,2.0681,2.073,2.0746,2.0758,2.0773,2.0844,2.0866,2.063,2.063,2.063,0,0,1.9996,2.0027,2.0072,2.0157,2.019,2.0263,2.0195,2.0276,2.0331,2.0291,2.0397,2.0419,2.0472,2.0593,2.0649,2.0618,2.084,2.0772,2.0782,2.0789,2.0857,2.088,2.0899,2.0637,2.0636,2.0635,0,0,2.0148,2.0178,2.0269,2.0303,2.0353,2.0361,2.0383,2.0428,2.044,2.0545,2.0517,2.0582,2.0702,2.0741,2.0776,2.0939,2.0916,2.096,2.1045,2.1115,2.1134,2.115,2.1209,2.123,2.0974,2.0974,2.0974,0,2.0221,2.0328,2.032,2.0402,2.0441,2.0404,2.0498,2.0531,2.0602,2.063,2.0593,2.0741,2.0774,2.0904,2.0943,2.0973,2.0999,2.0956,2.1131,2.1148,2.1163,2.1219,2.1241,2.0979,2.0978,2.0978,2.0977,0,2.0415,2.049,2.0558,2.0623,2.0669,2.0757,2.0762,2.081,2.0799,2.0812,2.0919,2.0956,2.1029,2.1058,2.105,2.1187,2.1166,2.113,2.1066,2.1191,2.1244,2.1265,2.0986,2.0985,2.0983,2.0982,0,0,2.0619,2.0675,2.0701,2.0729,2.078,2.0839,2.0924,2.0992,2.1033,2.1082,2.1154,2.1255,2.1221,2.1261,2.1256,2.1317,2.1444,2.1274,2.1275,2.1305,2.1598,2.1626,2.1651,2.1428,2.1432,2.1435,2.1594,0,2.0775,2.0923,2.0916,2.1055,2.1124,2.1089,2.1163,2.1203,2.1217,2.1278,2.1293,2.1365,2.1314,2.1338,2.1397,2.1416,2.1503,2.1404,2.1497,2.15,2.1487,2.1678,2.1709,2.1857,2.1614,2.1618,2.162,0,2.0978,2.103,2.1175,2.1214,2.1243,2.131,2.1371,2.1429,2.1474,2.1479,2.1522,2.1506,2.1594,2.1524,2.1645,2.1578,2.1615,2.163,2.1636,2.1647,2.157,2.1696,2.1905,2.1928,2.1653,2.165,2.1648,0,2.1113,2.122,2.132,2.1345,2.1393,2.1441,2.1463,2.1503,2.1544,2.1597,2.1624,2.1688,2.1723,2.1773,2.1776,2.1725,2.1898,2.1829,2.1907,2.1907,2.1947,2.1945,2.2167,2.1968,2.1967,2.1967,2.1966,0,2.129,2.1381,2.1381,2.1443,2.1543,2.1534,2.1634,2.1652,2.1687,2.1753,2.1726,2.1789,2.1787,2.1851,2.1853,2.1953,2.1969,2.1977,2.1977,2.1981,2.198,2.2007,2.1998,2.1973,2.1972,2.197,2.1969,0,2.1459,2.1463,2.157,2.1605,2.1615,2.1688,2.1718,2.1777,2.1786,2.187,2.1889,2.1904,2.1977,2.1983,2.207,2.2071,2.2192,2.218,2.2177,2.2176,2.2253,2.2246,2.2502,2.2535,2.2312,2.2315,2.2316,0,2.1573,2.1641,2.1682,2.1723,2.1747,2.1813,2.1854,2.1847,2.1891,2.1944,2.1997,2.2067,2.2123,2.2242,2.2262,2.2327,2.2318,2.2402,2.2328,2.2329,2.2321,2.2318,2.2325,2.2418,2.2421,2.2423,2.2424,0,2.1775,2.1772,2.1831,2.1889,2.1937,2.1984,2.2027,2.2063,2.2061,2.2111,2.2184,2.2228,2.2313,2.2384,2.2447,2.2471,2.2449,2.2447,2.2468,2.2474,2.247,2.2475,2.2219,2.2442,2.244,2.2439,2.2438,2.2437,2.1921,2.198,2.2017,2.2082,2.2113,2.2153,2.221,2.2225,2.2285,2.2353,2.2345,2.2426,2.2467,2.2549,2.2578,2.2642,2.2614,2.2645,2.2654,2.2662,2.267,2.2457,2.2654,2.2653,2.2653,2.2652,2.2652,0,2.2123,2.2144,2.2203,2.2263,2.2315,2.2284,2.233,2.2376,2.2447,2.2486,2.254,2.2624,2.2691,2.2715,2.278,2.2827,2.2819,2.2845,2.2843,2.2849,2.2691,2.2667,2.2851,2.2851,2.2851,2.2851,2.2851,2.2851,2.2234,2.2331,2.2333,2.2445,2.2466,2.2543,2.2572,2.2609,2.264,2.2734,2.2788,2.2802,2.2835,2.2902,2.2963,2.2968,2.2994,2.3026,2.3027,2.288,2.286,2.2841,2.2818,2.3031,2.3031,2.3179,2.318,2.3181]}]]